DW5657 Weather Reports


Display with metric or nautical units.
time (UTC)temp
F
wind
direction
speed
MPH
gust
MPH
rain 1hr
in
rain 24hr
in
rain mn
in
humidity
%
barometer
mb
20260508063203 47 118 0.0 1.0 0.00 0.00 0.00 67 1014.1
20260508062703 47 124 0.0 1.0 0.00 0.00 0.00 67 1014.1
20260508062203 47 127 0.0 0.0 0.00 0.00 0.00 67 1014.1
20260508061704 47 125 0.0 0.0 0.00 0.00 0.00 67 1014.2
20260508060704 47 123 0.0 0.0 0.00 0.00 0.00 67 1014.2
20260508060204 47 121 0.0 0.0 0.00 0.00 0.00 67 1014.1
20260508055703 48 122 0.0 0.0 0.00 0.00 0.00 67 1014.1
20260508055203 48 118 0.0 0.0 0.00 0.00 0.00 67 1014.2
20260508054203 48 118 0.0 0.0 0.00 0.00 0.00 65 1014.2
20260508053703 48 116 0.0 0.0 0.00 0.00 0.00 64 1014.3
20260508053204 48 114 0.0 0.0 0.00 0.00 0.00 64 1014.2
20260508052203 49 109 0.0 0.0 0.00 0.00 0.00 63 1014.1
20260508051703 49 108 0.0 0.0 0.00 0.00 0.00 63 1014.1
20260508051203 49 109 0.0 0.0 0.00 0.00 0.00 62 1014.1
20260508050703 49 109 0.0 0.0 0.00 0.00 0.00 62 1014.0
20260508050204 49 107 0.0 0.0 0.00 0.00 0.00 61 1014.0
20260508045703 49 109 0.0 0.0 0.00 0.00 0.00 61 1014.1
20260508045204 49 112 0.0 0.0 0.00 0.00 0.00 61 1014.1
20260508044703 50 111 0.0 0.0 0.00 0.00 0.00 61 1014.1
20260508044203 50 110 0.0 0.0 0.00 0.00 0.00 60 1014.1
20260508043703 50 111 0.0 0.0 0.00 0.00 0.00 60 1014.0
20260508043204 50 109 0.0 0.0 0.00 0.00 0.00 59 1014.0
20260508042703 50 109 0.0 0.0 0.00 0.00 0.00 59 1014.0
20260508042203 50 108 0.0 0.0 0.00 0.00 0.00 59 1014.1
20260508041203 50 109 0.0 0.0 0.00 0.00 0.00 58 1014.0
20260508040204 51 111 0.0 0.0 0.00 0.00 0.00 58 1013.8
20260508035702 51 109 0.0 0.0 0.00 0.00 0.00 58 1013.9
20260508034703 51 109 0.0 0.0 0.00 0.00 0.00 57 1013.9
20260508034203 51 108 0.0 0.0 0.00 0.00 0.00 57 1013.9
20260508033203 51 109 0.0 0.0 0.00 0.00 0.00 57 1014.0
20260508032703 51 109 0.0 0.0 0.00 0.00 0.00 57 1014.0
20260508032203 51 107 0.0 0.0 0.00 0.00 0.00 57 1014.0
20260508031703 51 107 0.0 0.0 0.00 0.00 0.00 57 1014.0
20260508031203 51 105 0.0 0.0 0.00 0.00 0.00 57 1013.9
20260508030203 51 104 0.0 0.0 0.00 0.00 0.00 57 1014.0
20260508025203 51 106 0.0 0.0 0.00 0.00 0.00 57 1014.1
20260508024703 51 109 0.0 0.0 0.00 0.00 0.00 58 1014.1
20260508024203 51 109 0.0 0.0 0.00 0.00 0.00 57 1014.1
20260508023704 51 106 0.0 0.0 0.00 0.00 0.00 57 1014.0
20260508023203 51 105 0.0 0.0 0.00 0.00 0.00 57 1013.9
20260508022704 51 101 0.0 0.0 0.00 0.00 0.00 56 1013.8
20260508021703 52 99 0.0 0.0 0.00 0.00 0.00 58 1014.0
20260508021204 52 100 0.0 0.0 0.00 0.00 0.00 58 1013.9
20260508020704 52 102 0.0 0.0 0.00 0.00 0.00 57 1013.8
20260508020203 52 101 0.0 0.0 0.00 0.00 0.00 56 1013.8
20260508015703 52 100 0.0 0.0 0.00 0.00 0.00 57 1013.9
20260508014704 52 101 0.0 0.0 0.00 0.00 0.00 55 1013.9
20260508014203 53 102 0.0 0.0 0.00 0.00 0.00 55 1013.9
20260508013704 53 102 0.0 0.0 0.00 0.00 0.00 55 1013.9
20260508013203 53 103 0.0 0.0 0.00 0.00 0.00 54 1013.8
20260508012703 53 102 0.0 0.0 0.00 0.00 0.00 53 1013.8
20260508012204 54 98 0.0 0.0 0.00 0.00 0.00 54 1013.8
20260508011703 54 99 0.0 0.0 0.00 0.00 0.00 53 1013.8
20260508011203 55 96 0.0 0.0 0.00 0.00 0.00 52 1013.8
20260508010703 55 95 0.0 0.0 0.00 0.00 0.00 52 1013.8
20260508010203 55 93 0.0 0.0 0.00 0.00 0.00 52 1013.8
20260508005704 56 92 0.0 0.0 0.00 0.00 0.00 51 1013.7
20260508005203 56 97 0.0 0.0 0.00 0.00 0.00 49 1013.6
20260508004703 56 90 0.0 0.0 0.00 0.00 0.00 47 1013.6
20260508004203 57 89 0.0 0.0 0.00 0.00 0.00 47 1013.6
20260508003204 57 82 0.0 0.0 0.00 0.00 0.00 45 1013.5
20260508002704 58 79 0.0 0.0 0.00 0.00 0.00 44 1013.5
20260508002203 58 82 0.0 0.0 0.00 0.00 0.00 44 1013.5
20260508001704 58 78 0.0 0.0 0.00 0.00 0.00 42 1013.4
20260508001203 59 76 0.0 0.0 0.00 0.00 0.00 41 1013.5
20260508000204 59 75 1.0 2.0 0.00 0.00 0.00 41 1013.4
20260507235703 59 79 0.0 2.0 0.00 0.00 0.00 41 1013.4
20260507235203 60 65 0.0 1.0 0.00 0.00 0.00 40 1013.3
20260507234704 60 75 0.0 1.0 0.00 0.00 0.00 39 1013.3
20260507234203 60 56 2.0 5.0 0.00 0.00 0.00 38 1013.3
20260507233703 60 44 0.0 3.0 0.00 0.00 0.00 40 1013.3
20260507233204 61 41 1.0 3.0 0.00 0.00 0.00 39 1013.2
20260507232704 61 47 1.0 3.0 0.00 0.00 0.00 38 1013.2
20260507232203 61 52 0.0 1.0 0.00 0.00 0.00 39 1013.2
20260507231703 61 61 0.0 3.0 0.00 0.00 0.00 38 1013.2
20260507231204 61 57 0.0 0.0 0.00 0.00 0.00 37 1013.2
20260507230203 62 7 0.0 0.0 0.00 0.00 0.00 38 1013.2
20260507225703 62 11 1.0 5.0 0.00 0.00 0.00 36 1013.3
20260507224203 62 3 0.0 3.0 0.00 0.00 0.00 38 1013.2
20260507223204 62 32 4.0 9.0 0.00 0.00 0.00 36 1013.3
20260507222703 63 30 1.0 5.0 0.00 0.00 0.00 38 1013.2
20260507222204 62 0 1.0 5.0 0.00 0.00 0.00 37 1013.2
20260507221203 63 31 3.0 7.0 0.00 0.00 0.00 36 1013.2
20260507220703 63 0 0.0 1.0 0.00 0.00 0.00 38 1013.3
20260507220204 62 303 1.0 5.0 0.00 0.00 0.00 37 1013.4
20260507215203 61 319 1.0 3.0 0.00 0.00 0.00 38 1013.5
20260507214704 61 26 1.0 5.0 0.00 0.00 0.00 39 1013.5
20260507213704 61 79 1.0 7.0 0.00 0.00 0.00 37 1013.5
20260507213203 62 44 3.0 7.0 0.00 0.00 0.00 36 1013.6
20260507212704 63 281 2.0 6.0 0.00 0.00 0.00 38 1013.5
20260507212203 63 296 2.0 6.0 0.00 0.00 0.00 37 1013.4
20260507211204 62 310 2.0 6.0 0.00 0.00 0.00 38 1013.5
20260507210703 62 270 3.0 7.0 0.00 0.00 0.00 38 1013.4
20260507210203 62 14 2.0 5.0 0.00 0.00 0.00 38 1013.3
20260507205704 62 238 1.0 5.0 0.00 0.00 0.00 40 1013.4
20260507205204 62 298 1.0 3.0 0.00 0.00 0.00 39 1013.3
20260507204204 62 12 1.0 3.0 0.00 0.00 0.00 39 1013.3
20260507203703 62 83 1.0 7.0 0.00 0.00 0.00 40 1013.3
20260507203203 62 62 3.0 6.0 0.00 0.00 0.00 38 1013.4
20260507202703 62 74 2.0 9.0 0.00 0.00 0.00 39 1013.3
20260507202203 61 80 2.0 9.0 0.00 0.00 0.00 38 1013.2
20260507201703 61 240 3.0 8.0 0.00 0.00 0.00 40 1013.3
20260507201203 61 297 2.0 8.0 0.00 0.00 0.00 40 1013.3
20260507200703 61 155 1.0 3.0 0.00 0.00 0.00 40 1013.4
20260507200203 61 281 2.0 6.0 0.00 0.00 0.00 41 1013.4
20260507195704 60 237 2.0 6.0 0.00 0.00 0.00 39 1013.4
20260507194703 60 267 4.0 8.0 0.00 0.00 0.00 40 1013.5
20260507194205 60 315 3.0 7.0 0.00 0.00 0.00 41 1013.6
20260507193203 60 311 2.0 6.0 0.00 0.00 0.00 40 1013.7
20260507192703 60 256 2.0 7.0 0.00 0.00 0.00 42 1013.8
20260507192203 60 317 0.0 5.0 0.00 0.00 0.00 41 1013.6
20260507191703 59 230 2.0 7.0 0.00 0.00 0.00 43 1013.7
20260507191204 59 350 2.0 6.0 0.00 0.00 0.00 42 1013.8
20260507185703 59 61 1.0 3.0 0.00 0.00 0.00 45 1013.8
20260507185203 59 134 2.0 7.0 0.00 0.00 0.00 46 1013.8
20260507184703 58 25 1.0 6.0 0.00 0.00 0.00 45 1013.8
20260507184203 58 115 1.0 7.0 0.00 0.00 0.00 43 1013.7
20260507183704 58 115 3.0 7.0 0.00 0.00 0.00 43 1013.8
20260507183203 58 122 1.0 3.0 0.00 0.00 0.00 42 1014.0
20260507182703 58 73 3.0 8.0 0.00 0.00 0.00 43 1014.1
20260507182203 58 87 2.0 7.0 0.00 0.00 0.00 43 1013.9
20260507181703 59 70 3.0 12.0 0.00 0.00 0.00 42 1014.0
20260507180704 59 11 1.0 6.0 0.00 0.00 0.00 44 1013.9
20260507180204 59 78 0.0 6.0 0.00 0.00 0.00 42 1014.1
20260507175704 59 77 2.0 8.0 0.00 0.00 0.00 43 1014.2
20260507175204 59 99 0.0 5.0 0.00 0.00 0.00 42 1014.3
20260507174703 59 75 1.0 9.0 0.00 0.00 0.00 42 1014.3
20260507174204 59 68 2.0 9.0 0.00 0.00 0.00 41 1014.4
20260507173703 59 101 2.0 7.0 0.00 0.00 0.00 42 1014.3
20260507173205 59 31 0.0 2.0 0.00 0.00 0.00 42 1014.4
20260507172704 59 65 2.0 6.0 0.00 0.00 0.00 42 1014.5
20260507172203 59 72 2.0 8.0 0.00 0.00 0.00 42 1014.5
20260507171705 59 80 2.0 7.0 0.00 0.00 0.00 46 1014.6
20260507171204 59 95 2.0 10.0 0.00 0.00 0.00 42 1014.7
20260507170703 59 111 1.0 10.0 0.00 0.00 0.00 43 1014.7
20260507170204 59 63 1.0 3.0 0.00 0.00 0.00 47 1014.8
20260507165703 58 78 1.0 3.0 0.00 0.00 0.00 45 1014.8
20260507164704 58 75 3.0 8.0 0.00 0.00 0.00 43 1014.9
20260507164204 58 117 1.0 6.0 0.00 0.00 0.00 44 1014.9
20260507163703 58 113 2.0 6.0 0.00 0.00 0.00 44 1015.0
20260507163203 57 105 1.0 5.0 0.00 0.00 0.00 45 1015.0
20260507162703 57 90 1.0 5.0 0.00 0.00 0.00 45 1015.1
20260507161703 57 68 2.0 7.0 0.00 0.00 0.00 44 1015.0
20260507160705 57 49 2.0 6.0 0.00 0.00 0.00 43 1015.2
20260507160205 57 110 2.0 5.0 0.00 0.00 0.00 44 1015.2
20260507155704 57 95 2.0 7.0 0.00 0.00 0.00 43 1015.1
20260507155203 56 75 2.0 5.0 0.00 0.00 0.00 44 1015.1
20260507154703 56 137 2.0 5.0 0.00 0.00 0.00 45 1015.1
20260507154203 56 16 1.0 8.0 0.00 0.00 0.00 45 1015.1
20260507153703 56 122 2.0 8.0 0.00 0.00 0.00 45 1015.1
20260507153204 55 130 2.0 9.0 0.00 0.00 0.00 47 1015.1
20260507152703 55 112 2.0 6.0 0.00 0.00 0.00 47 1015.0
20260507152203 55 94 3.0 6.0 0.00 0.00 0.00 45 1014.9
20260507151705 55 129 3.0 6.0 0.00 0.00 0.00 47 1015.0
20260507151203 55 149 2.0 6.0 0.00 0.00 0.00 47 1014.9
20260507150704 55 150 1.0 3.0 0.00 0.01 0.00 49 1014.9
20260507150203 55 171 2.0 5.0 0.00 0.01 0.00 46 1014.9
20260507145703 55 155 1.0 5.0 0.00 0.01 0.00 47 1014.9
20260507145204 55 142 3.0 9.0 0.00 0.01 0.00 46 1014.9
20260507144703 55 131 1.0 5.0 0.00 0.01 0.00 46 1014.9
20260507144203 55 207 1.0 5.0 0.00 0.01 0.00 48 1014.9
20260507143704 54 67 1.0 5.0 0.00 0.01 0.00 46 1015.0
20260507142705 54 127 1.0 7.0 0.00 0.01 0.00 47 1015.0
20260507142204 53 32 2.0 5.0 0.00 0.01 0.00 49 1015.0
20260507141703 53 128 1.0 2.0 0.00 0.01 0.00 49 1015.0
20260507141203 53 151 2.0 5.0 0.00 0.01 0.00 49 1015.1
20260507140704 53 113 2.0 6.0 0.00 0.01 0.00 49 1015.2
20260507140203 52 172 0.0 1.0 0.00 0.01 0.00 52 1015.1
20260507135703 52 132 0.0 3.0 0.00 0.01 0.00 51 1015.1
20260507135205 52 132 1.0 5.0 0.00 0.01 0.00 52 1015.0
20260507134703 51 106 2.0 6.0 0.00 0.01 0.00 52 1015.0
20260507134203 51 105 1.0 3.0 0.00 0.01 0.00 54 1015.0
20260507133204 50 138 0.0 5.0 0.00 0.01 0.00 61 1015.0
20260507132703 50 144 2.0 7.0 0.00 0.01 0.00 60 1015.1
20260507131703 49 113 0.0 3.0 0.00 0.01 0.00 64 1015.0
20260507131203 49 140 1.0 3.0 0.00 0.01 0.00 65 1015.1
20260507130703 48 149 0.0 3.0 0.00 0.01 0.00 67 1015.0
20260507130203 48 27 1.0 3.0 0.00 0.01 0.00 68 1014.9
20260507125704 47 171 0.0 2.0 0.00 0.01 0.00 70 1015.0
20260507124204 46 180 0.0 0.0 0.00 0.01 0.00 74 1015.0
20260507123203 45 354 0.0 1.0 0.00 0.01 0.00 75 1015.0
20260507122705 45 193 1.0 5.0 0.00 0.01 0.00 76 1015.2
20260507121704 44 202 0.0 0.0 0.00 0.01 0.00 77 1015.2
20260507121204 44 201 0.0 0.0 0.00 0.01 0.00 79 1015.1
20260507120703 43 194 0.0 5.0 0.00 0.01 0.00 81 1015.1
20260507120203 43 200 0.0 0.0 0.00 0.01 0.00 82 1015.1
20260507115704 43 195 0.0 0.0 0.00 0.01 0.00 84 1015.1
20260507115203 42 197 0.0 0.0 0.00 0.01 0.00 85 1015.0
20260507113704 41 0 0.0 0.0 0.00 0.01 0.00 89 1015.0
20260507113203 41 183 0.0 0.0 0.00 0.01 0.00 89 1015.0
20260507112703 41 140 0.0 0.0 0.00 0.01 0.00 89 1015.0
20260507112203 41 138 0.0 0.0 0.00 0.01 0.00 89 1015.0
20260507111703 41 137 0.0 0.0 0.00 0.01 0.00 88 1014.9
20260507111204 41 136 0.0 0.0 0.00 0.01 0.00 88 1014.9
20260507110704 41 138 0.0 0.0 0.00 0.01 0.00 88 1014.8
20260507110204 41 137 0.0 0.0 0.00 0.01 0.00 88 1014.7
20260507105703 41 136 0.0 0.0 0.00 0.01 0.00 88 1014.6
20260507104703 41 135 0.0 0.0 0.00 0.01 0.00 88 1014.5
20260507103703 41 136 0.0 0.0 0.00 0.01 0.00 88 1014.4
20260507103203 41 135 0.0 0.0 0.00 0.01 0.00 88 1014.4
20260507102703 41 135 0.0 0.0 0.00 0.01 0.00 88 1014.4
20260507102204 41 134 0.0 0.0 0.00 0.01 0.00 88 1014.4
20260507101204 41 134 0.0 0.0 0.00 0.01 0.00 88 1014.4
20260507100703 41 134 0.0 0.0 0.00 0.01 0.00 88 1014.4
20260507100203 41 135 0.0 0.0 0.00 0.01 0.00 87 1014.4
20260507095703 42 134 0.0 0.0 0.00 0.01 0.00 87 1014.4
20260507095203 42 133 0.0 0.0 0.00 0.01 0.00 87 1014.4
20260507093704 42 134 0.0 0.0 0.00 0.01 0.00 86 1014.5
20260507093204 42 136 0.0 0.0 0.00 0.01 0.00 87 1014.4
20260507092703 42 136 0.0 0.0 0.00 0.01 0.00 86 1014.3
20260507092204 42 136 0.0 0.0 0.00 0.01 0.00 87 1014.3
20260507091704 42 135 0.0 0.0 0.00 0.01 0.00 87 1014.2
20260507091203 42 136 0.0 0.0 0.00 0.01 0.00 86 1014.2
20260507090703 42 136 0.0 0.0 0.00 0.01 0.00 86 1014.2
20260507090203 42 136 0.0 0.0 0.00 0.01 0.00 86 1014.2
20260507085703 42 136 0.0 0.0 0.00 0.01 0.00 86 1014.1
20260507085204 42 135 0.0 0.0 0.00 0.01 0.00 86 1014.1
20260507084704 42 135 0.0 0.0 0.00 0.01 0.00 86 1014.0
20260507084204 42 135 0.0 0.0 0.00 0.01 0.00 85 1014.0
20260507083703 42 135 0.0 0.0 0.00 0.01 0.00 85 1014.0
20260507083203 43 136 0.0 0.0 0.00 0.01 0.00 85 1014.0
20260507082704 43 135 0.0 0.0 0.00 0.01 0.00 85 1013.9
20260507082203 43 135 0.0 0.0 0.00 0.01 0.00 85 1013.9
20260507081704 43 135 0.0 0.0 0.00 0.01 0.00 84 1013.9
20260507081203 43 134 0.0 0.0 0.00 0.01 0.00 84 1013.8
20260507080704 43 134 0.0 0.0 0.00 0.01 0.00 84 1013.9
20260507080204 43 134 0.0 0.0 0.00 0.01 0.00 84 1013.8
20260507075704 43 134 0.0 0.0 0.00 0.01 0.00 84 1013.8
20260507074204 43 133 0.0 0.0 0.00 0.01 0.00 84 1013.8
20260507073703 44 133 0.0 0.0 0.00 0.01 0.00 84 1013.8
20260507073204 44 133 0.0 0.0 0.00 0.01 0.00 84 1013.9
20260507072203 44 132 0.0 0.0 0.00 0.01 0.00 83 1013.9
20260507071703 44 133 0.0 0.0 0.00 0.01 0.00 83 1013.9
20260507070704 44 135 0.0 0.0 0.00 0.01 0.00 83 1013.8
20260507070203 44 134 0.0 0.0 0.00 0.01 0.00 83 1013.8
20260507065703 44 134 0.0 0.0 0.00 0.01 0.00 83 1013.8
20260507065204 44 133 0.0 0.0 0.00 0.01 0.00 83 1013.9
20260507064703 45 133 0.0 0.0 0.00 0.01 0.00 82 1013.9
20260507064210 45 132 0.0 0.0 0.00 0.01 0.00 82 1014.0